YCBB

Details ICAO YCBB
Name Coonabarabran
Region Australia
Timezone Australia/Sydney (UTC+10.0)
Plans Departing 1
Arriving 2
Stats Elevation 2,117 ft / 645 m (AMSL)
Location -31.331643° 149.267350°
Runways 2
Magnetic Variation 11.030° E
Sunrise 2018-05-25 20:51:15 UTC / 2018-05-26 06:51:15 Local
Sunset 2018-05-26 07:11:29 UTC / 2018-05-26 17:11:29 Local
Advertisement - Login to hide

Runways

ID Width Length Bearing (true) Bearing (mag) Surface Threshold Offset Overrun Length
01 308 ft / 94 m 2,528 ft / 771 m 29.08° 18.05° Grass 0 ft / 0 m 0 ft / 0 m
11 98 ft / 30 m 4,984 ft / 1,519 m 123.00° 111.97° Asphalt 0 ft / 0 m 0 ft / 0 m
19 308 ft / 94 m 2,528 ft / 771 m 209.07° 198.04° Grass 0 ft / 0 m 0 ft / 0 m
29 98 ft / 30 m 4,984 ft / 1,519 m 303.00° 291.97° Asphalt 0 ft / 0 m 0 ft / 0 m

Map

Weather


0- 5 10 15 20 25 30 35+ Temperature / ° C

Clouds and Precipitation
Forecast for 2018-05-25 12:00 UTC. Updated 6 hours ago

Ground ~20,000 ft ~40,000 ft Winds

METAR

YCBB 251700Z AUTO 10003KT 9999 // NCD 10/06 Q1028

TAF

Not found

Frequencies

Unicom 126.70 MHz CTAF
Warning: Do not use this data for real-world aviation or navigation. No guarantee of current accuracy is given.